TimeEST,TemperatureF,Dew PointF,Humidity,Sea Level PressureIn,VisibilityMPH,Wind Direction,Wind SpeedMPH,Gust SpeedMPH,PrecipitationIn,Events,Conditions,WindDirDegrees,DateUTC
12:15 AM,26.6,12.2,55,30.33,10.0,NNE,6.9,-,N/A,,Overcast,20,2013-12-14 05:15:00
12:35 AM,24.8,12.2,59,30.34,10.0,NNE,6.9,-,N/A,,Overcast,30,2013-12-14 05:35:00
12:55 AM,24.8,12.2,59,30.34,10.0,North,4.6,-,N/A,,Overcast,10,2013-12-14 05:55:00
1:15 AM,24.8,12.2,59,30.36,10.0,NNE,5.8,-,N/A,,Scattered Clouds,30,2013-12-14 06:15:00
1:35 AM,24.8,12.2,59,30.37,10.0,North,6.9,-,N/A,,Scattered Clouds,10,2013-12-14 06:35:00
1:55 AM,24.8,10.4,54,30.39,10.0,North,6.9,-,N/A,,Overcast,350,2013-12-14 06:55:00
2:15 AM,24.8,10.4,54,30.40,10.0,NNE,5.8,-,N/A,,Overcast,20,2013-12-14 07:15:00
2:35 AM,24.8,10.4,54,30.39,10.0,NNE,6.9,-,N/A,,Overcast,20,2013-12-14 07:35:00
2:55 AM,24.8,10.4,54,30.38,10.0,NNE,6.9,-,N/A,,Overcast,20,2013-12-14 07:55:00
3:15 AM,23.0,8.6,54,30.39,10.0,NNE,6.9,-,N/A,,Overcast,30,2013-12-14 08:15:00
3:35 AM,23.0,8.6,54,30.40,10.0,North,5.8,-,N/A,,Overcast,10,2013-12-14 08:35:00
3:55 AM,23.0,8.6,54,30.40,10.0,NNE,6.9,-,N/A,,Scattered Clouds,30,2013-12-14 08:55:00
4:15 AM,23.0,8.6,54,30.40,10.0,NNE,10.4,-,N/A,,Mostly Cloudy,20,2013-12-14 09:15:00
4:35 AM,23.0,8.6,54,30.41,10.0,NNE,8.1,-,N/A,,Overcast,30,2013-12-14 09:35:00
4:55 AM,23.0,10.4,59,30.41,10.0,North,6.9,-,N/A,,Overcast,10,2013-12-14 09:55:00
5:15 AM,23.0,12.2,63,30.42,10.0,NNE,9.2,-,N/A,,Overcast,20,2013-12-14 10:15:00
5:35 AM,21.2,12.2,68,30.43,9.0,NNE,8.1,-,N/A,Snow,Light Snow,20,2013-12-14 10:35:00
5:55 AM,21.2,12.2,68,30.44,9.0,NNE,6.9,-,N/A,Snow,Light Snow,30,2013-12-14 10:55:00
6:15 AM,21.2,12.2,68,30.45,9.0,NNE,5.8,-,N/A,Snow,Light Snow,30,2013-12-14 11:15:00
6:35 AM,21.2,14.0,74,30.45,5.0,NE,5.8,-,N/A,Snow,Light Snow,40,2013-12-14 11:35:00
6:55 AM,21.2,14.0,74,30.46,3.0,NE,6.9,-,0.02,Snow,Light Snow,40,2013-12-14 11:55:00
7:15 AM,21.2,15.8,80,30.47,1.5,NE,8.1,-,0.02,Snow,Light Snow,50,2013-12-14 12:15:00
7:35 AM,21.2,15.8,80,30.48,2.0,NE,8.1,-,0.07,Snow,Light Snow,40,2013-12-14 12:35:00
7:55 AM,19.4,15.8,86,30.49,1.5,NE,8.1,-,0.13,Snow,Light Snow,50,2013-12-14 12:55:00
8:15 AM,19.4,15.8,86,30.49,2.5,NE,6.9,-,0.02,Snow,Light Snow,40,2013-12-14 13:15:00
8:35 AM,19.4,14.0,80,30.50,5.0,NE,6.9,-,0.04,Snow,Light Snow,50,2013-12-14 13:35:00
8:55 AM,19.4,12.2,74,30.51,4.0,NNE,6.9,-,0.06,Snow,Light Snow,30,2013-12-14 13:55:00
9:15 AM,19.4,12.2,74,30.51,2.0,NE,6.9,17.3,0.04,Snow,Light Snow,50,2013-12-14 14:15:00
9:35 AM,19.4,14.0,80,30.52,2.0,NE,5.8,-,0.11,Snow,Light Snow,40,2013-12-14 14:35:00
9:55 AM,19.4,14.0,80,30.52,1.2,NE,8.1,-,0.27,Snow,Light Snow,50,2013-12-14 14:55:00
10:15 AM,19.4,12.2,74,30.52,1.5,NE,8.1,-,0.06,Snow,Light Snow,40,2013-12-14 15:15:00
10:35 AM,19.4,14.0,80,30.53,2.0,ENE,9.2,-,0.12,Snow,Light Snow,60,2013-12-14 15:35:00
10:55 AM,19.4,12.2,74,30.52,2.5,NE,8.1,-,0.17,Snow,Light Snow,50,2013-12-14 15:55:00
11:15 AM,19.4,12.2,74,30.52,2.0,NE,8.1,-,0.08,Snow,Light Snow,40,2013-12-14 16:15:00
11:35 AM,19.4,14.0,80,30.51,1.5,ENE,6.9,-,0.17,Snow,Light Snow,60,2013-12-14 16:35:00
11:55 AM,19.4,12.2,74,30.50,1.8,ENE,8.1,-,0.27,Snow,Light Snow,70,2013-12-14 16:55:00
12:15 PM,19.4,12.2,74,30.48,1.8,NE,8.1,-,0.07,Snow,Light Snow,50,2013-12-14 17:15:00
12:35 PM,19.4,12.2,74,30.47,2.0,NE,9.2,-,0.16,Snow,Light Snow,40,2013-12-14 17:35:00
12:55 PM,19.4,12.2,74,30.46,5.0,ENE,9.2,-,0.19,Snow,Light Snow,60,2013-12-14 17:55:00
1:15 PM,19.4,12.2,74,30.46,3.0,NE,6.9,-,0.01,Snow,Light Snow,50,2013-12-14 18:15:00
1:35 PM,19.4,12.2,74,30.45,4.0,NE,11.5,-,0.03,Snow,Light Snow,50,2013-12-14 18:35:00
1:55 PM,19.4,12.2,74,30.44,2.5,ENE,10.4,-,0.05,Snow,Light Snow,60,2013-12-14 18:55:00
2:15 PM,17.6,12.2,79,30.43,1.8,ENE,9.2,-,0.03,Snow,Light Snow,60,2013-12-14 19:15:00
2:35 PM,17.6,12.2,79,30.43,1.8,ENE,6.9,-,0.09,Snow,Light Snow,70,2013-12-14 19:35:00
2:55 PM,17.6,12.2,79,30.44,1.0,ENE,8.1,-,0.25,Snow,Light Snow,60,2013-12-14 19:55:00
3:15 PM,17.6,14.0,86,30.43,1.0,ENE,9.2,-,0.07,Snow,Light Snow,60,2013-12-14 20:15:00
3:35 PM,17.6,14.0,86,30.41,1.0,ENE,10.4,-,0.15,Snow,Light Snow,60,2013-12-14 20:35:00
3:55 PM,17.6,14.0,86,30.40,1.0,ENE,8.1,-,0.27,Snow,Light Snow,70,2013-12-14 20:55:00
4:15 PM,17.6,14.0,86,30.39,1.0,ENE,11.5,16.1,0.05,Snow,Light Snow,60,2013-12-14 21:15:00
4:35 PM,17.6,14.0,86,30.39,1.0,ENE,9.2,-,0.12,Snow,Light Snow,60,2013-12-14 21:35:00
4:55 PM,17.6,14.0,86,30.37,2.0,ENE,8.1,-,0.18,Snow,Light Snow,70,2013-12-14 21:55:00
5:15 PM,19.4,15.8,86,30.35,2.0,NE,10.4,-,0.03,Snow,Light Snow,50,2013-12-14 22:15:00
5:35 PM,19.4,15.8,86,30.32,2.5,ENE,10.4,16.1,0.14,Snow,Light Snow,60,2013-12-14 22:35:00
5:55 PM,19.4,15.8,86,30.31,3.0,ENE,10.4,19.6,0.21,Snow,Light Snow,60,2013-12-14 22:55:00
6:15 PM,19.4,17.6,93,30.31,4.0,NE,10.4,-,0.01,Snow,Light Snow,50,2013-12-14 23:15:00
6:35 PM,21.2,17.6,86,30.31,3.0,ENE,9.2,16.1,0.06,Snow,Light Snow,60,2013-12-14 23:35:00
6:55 PM,21.2,17.6,86,30.29,1.0,ENE,11.5,17.3,0.45,Snow,Snow,60,2013-12-14 23:55:00
7:15 PM,21.2,19.4,93,30.27,1.5,ENE,10.4,16.1,0.15,Snow,Light Snow,60,2013-12-15 00:15:00
7:35 PM,21.2,19.4,93,30.25,1.0,ENE,11.5,18.4,0.48,Snow,Snow,60,2013-12-15 00:35:00
7:55 PM,21.2,19.4,93,30.24,0.8,ENE,8.1,-,1.42,Snow,Snow,60,2013-12-15 00:55:00
8:15 PM,21.2,21.2,100,30.22,0.8,ENE,9.2,18.4,0.71,Snow,Snow,60,2013-12-15 01:15:00
8:35 PM,23.0,21.2,93,30.20,0.8,ENE,11.5,16.1,2.37,Snow,Heavy Snow,60,2013-12-15 01:35:00
8:55 PM,23.0,21.2,93,30.19,1.0,ENE,8.1,18.4,3.96,Snow,Snow,60,2013-12-15 01:55:00
9:15 PM,23.0,23.0,100,30.16,1.0,East,12.7,16.1,0.42,Snow,Snow,80,2013-12-15 02:15:00
9:35 PM,24.8,23.0,93,30.13,1.8,ENE,12.7,16.1,0.80,Snow,Snow,70,2013-12-15 02:35:00
9:55 PM,26.6,24.8,93,30.11,1.0,ENE,12.7,18.4,1.19,Snow,Snow,70,2013-12-15 02:55:00
10:15 PM,26.6,26.6,100,30.08,0.8,East,11.5,18.4,0.89,Snow,Snow,80,2013-12-15 03:15:00
10:35 PM,26.6,26.6,100,30.07,0.8,ENE,11.5,17.3,1.96,Snow,Snow,70,2013-12-15 03:35:00
10:55 PM,28.4,26.6,93,30.05,1.0,ENE,11.5,21.9,2.81,Snow,Snow,70,2013-12-15 03:55:00
11:15 PM,28.4,28.4,100,30.03,1.5,ENE,9.2,-,0.14,Snow,Light Snow,60,2013-12-15 04:15:00
11:35 PM,28.4,28.4,100,30.01,1.2,ENE,9.2,-,0.45,Snow,Light Snow,60,2013-12-15 04:35:00
11:55 PM,28.4,28.4,100,29.97,2.5,ENE,11.5,18.4,0.53,Snow,Light Snow,60,2013-12-15 04:55:00